Location: ????????
(37.9452°N, 23.1472°E)
Time: 14:27:54
(UTC+00:00)

Resurs 01 Rocket - Pass Details

Date: 18 April 2024
Orbit: 631 x 640 km, 97.8° (Epoch: 18 May)

Event Time Altitude Azimuth Distance (km) Brightness Sun altitude
Exits shadow 18:01:23 11° 143° (SE) 1,932 3.6 -11.0°
Maximum altitude 18:05:20 44° 73° (ENE) 886 2.0 -11.8°
Drops below altitude 10° 18:09:32 10° 2° (N) 2,035 4.5 -12.5°
Sets 18:11:50 0° 356° (N) 2,949 5.5 -12.9°
